Glennallen, AK

10:22 PM AKST on February 21, 2017 (GMT -0900)
Gulkana

Weather History for PAGK - March, 2014

Change the Weather History Date:

Sunday, March 30, 2014

  Actual Average Record
Temperature  
Mean Temperature 14 °F -  
Max Temperature 35 °F 34 °F 48 °F (1961)
Min Temperature -7 °F 9 °F -18 °F (1972)
Degree Days  
Heating Degree Days 51    
Moisture  
Dew Point -1 °F    
Average Humidity 52    
Maximum Humidity 79    
Minimum Humidity 21    
Precipitation  
Precipitation 0.00 in - - ()
Sea Level Pressure  
Sea Level Pressure 30.08 in    
Wind  
Wind Speed 3 mph (West)    
Max Wind Speed 7 mph    
Max Gust Speed -    
Visibility 10 miles    
Events      
Averages and records for this station are not official NWS values.
T = Trace of Precipitation, MM = Missing Value Source: NWS Daily Summary

Daily Weather History Graph

Daily Weather History Graph

Search for Another Location

Airport or City:

Trip Planner

Search our weather history database for the weather conditions in past years. The results will help you decide how hot, cold, wet, or windy it might be!

Date:

Astronomy

Mar. 30, 2014 Rise Set
Actual Time 7:09 AM AKDT 8:24 PM AKDT
Civil Twilight 6:23 AM AKDT 9:10 PM AKDT
Nautical Twilight 5:26 AM AKDT 10:08 PM AKDT
Astronomical Twilight 4:17 AM AKDT 11:18 PM AKDT
Moon 6:59 AM AKDT (3/30) 9:00 PM AKDT (3/30)
Length of Visible Light 14h 47m
Length of Day
13h 15m
New Moon, 0% of the Moon is Illuminated
Mar 30
New Moon
Apr 7
First Quarter
Apr 14
Full
Apr 21
Last Quarter
Apr 28
New

Hourly Weather History & Observations

Time (AKDT) Temp. Windchill Dew Point Humidity Pressure Visibility Wind Dir Wind Speed Gust Speed Precip Events Conditions
12:53 AM 5.0 °F -4.1 °F -2.9 °F 70% 29.96 in 10.0 mi SW 4.6 mph - N/A   Clear
1:53 AM 1.0 °F - -7.1 °F 69% 29.98 in 10.0 mi Calm Calm - N/A   Clear
2:53 AM -2.0 °F -12.2 °F -8.0 °F 76% 30.00 in 10.0 mi WNW 4.6 mph - N/A   Clear
3:53 AM -4.0 °F -14.6 °F -11.0 °F 72% 30.01 in 10.0 mi NW 4.6 mph - N/A   Clear
4:53 AM -5.1 °F -15.8 °F -11.0 °F 76% 30.03 in 10.0 mi WNW 4.6 mph - N/A   Clear
5:53 AM -2.9 °F -16.5 °F -9.0 °F 75% 30.04 in 10.0 mi NW 6.9 mph - N/A   Clear
6:53 AM -6.0 °F - -11.0 °F 79% 30.06 in 10.0 mi Calm Calm - N/A   Clear
7:53 AM -4.0 °F -12.4 °F -9.9 °F 76% 30.07 in 10.0 mi WNW 3.5 mph - N/A   Clear
8:53 AM 3.0 °F -4.4 °F -6.0 °F 66% 30.09 in 10.0 mi NW 3.5 mph - N/A   Clear
9:53 AM 10.0 °F - -4.0 °F 53% 30.11 in 10.0 mi Calm Calm - N/A   Clear
10:53 AM 15.1 °F - -2.0 °F 47% 30.11 in 10.0 mi Calm Calm - N/A   Clear
11:53 AM 18.0 °F 12.7 °F -0.0 °F 45% 30.11 in 10.0 mi SSE 3.5 mph - N/A   Clear
12:53 PM 21.9 °F - 1.9 °F 42% 30.11 in 10.0 mi Calm Calm - N/A   Clear
1:53 PM 27.0 °F - 3.9 °F 37% 30.10 in 10.0 mi Calm Calm - N/A   Clear
2:53 PM 30.0 °F - 5.0 °F 35% 30.10 in 10.0 mi Calm Calm - N/A   Clear
3:53 PM 30.9 °F 25.2 °F 6.1 °F 35% 30.09 in 10.0 mi SE 5.8 mph - N/A   Clear
4:53 PM 33.1 °F 27.7 °F 7.0 °F 34% 30.09 in 10.0 mi ESE 5.8 mph - N/A   Clear
5:53 PM 33.1 °F 30.0 °F 5.0 °F 31% 30.08 in 10.0 mi SSE 3.5 mph - N/A   Clear
6:53 PM 33.1 °F - 3.9 °F 29% 30.09 in 10.0 mi Calm Calm - N/A   Clear
7:53 PM 30.0 °F - 7.0 °F 38% 30.10 in 10.0 mi Calm Calm - N/A   Clear
8:53 PM 23.0 °F - 7.0 °F 50% 30.11 in 10.0 mi Calm Calm - N/A   Clear
9:53 PM 18.0 °F - 3.9 °F 54% 30.12 in 10.0 mi Calm Calm - N/A   Clear
10:53 PM 16.0 °F - 1.0 °F 52% 30.13 in 10.0 mi Calm Calm - N/A   Clear
11:53 PM 10.9 °F 1.4 °F -0.0 °F 61% 30.14 in 10.0 mi NW 5.8 mph - N/A   Clear